Weather History for 10865 - January, 2014

Change the Weather History Date:

Sunday, January 5, 2014

  Actual Average Record
Temperature  
Mean Temperature 39 °F -  
Max Temperature 42 °F 35 °F - ()
Min Temperature 36 °F 23 °F - ()
Degree Days  
Heating Degree Days 26    
Moisture  
Dew Point 37 °F    
Average Humidity 85    
Maximum Humidity 100    
Minimum Humidity 77    
Precipitation  
Precipitation 0.08 in - - ()
Sea Level Pressure  
Sea Level Pressure 29.84 in    
Wind  
Wind Speed 6 mph ()    
Max Wind Speed 16 mph    
Max Gust Speed -    
Visibility 13.3 miles    
Events Rain    
T = Trace of Precipitation, MM = Missing Value Source: Averaged Metar Reports

Daily Weather History Graph

Daily Weather History Graph

Search for Another Location

Airport or City:

Trip Planner

Search our weather history database for the weather conditions in past years. The results will help you decide how hot, cold, wet, or windy it might be!

Date:

Astronomy

Jan. 05, 2014 Rise Set
Actual Time 8:03 AM CET 4:34 PM CET
Civil Twilight 7:27 AM CET 5:10 PM CET
Nautical Twilight 6:48 AM CET 5:50 PM CET
Astronomical Twilight 6:10 AM CET 6:27 PM CET
Moon 10:12 AM CET (1/5) 10:09 PM CET (1/5)
Length of Visible Light 9h 42m
Length of Day
8h 30m
Waxing Crescent, 22% of the Moon is Illuminated
Jan 5
Waxing Crescent
Jan 8
First Quarter
Jan 16
Full
Jan 24
Last Quarter
Jan 30
New

Hourly Weather History & Observations

Time (CET) Temp. Dew Point Humidity Pressure Visibility Wind Dir Wind Speed Gust Speed Precip Events Conditions
12:00 AM 41 °F 39 °F 92% 29.61 in 44 mi SSE 6.7 mph - -  
1:00 AM 38 °F 37 °F 94% 29.60 in 28 mi East 2.2 mph - -   Clear
2:00 AM 40 °F 38 °F 91% 29.58 in 34 mi ESE 4.5 mph - -   Overcast
3:00 AM 40 °F 39 °F 93% 29.60 in 19 mi East 2.2 mph - -   Overcast
4:00 AM 38 °F 37 °F 96% 29.60 in 16 mi ESE 2.2 mph - -  
5:00 AM 39 °F 38 °F 94% 29.62 in 25 mi SSW 4.5 mph - -   Overcast
6:00 AM 38 °F 38 °F 100% 29.67 in 7 mi WSW 6.7 mph - - Rain Light Rain
7:00 AM 42 °F 39 °F 84% 29.70 in 28 mi West 11.2 mph - - Rain Rain
8:00 AM 41 °F 38 °F 83% 29.75 in 17 mi West 15.7 mph - - Rain Light Drizzle
9:00 AM 39 °F 37 °F 90% 29.81 in 9 mi West 11.2 mph - - Rain Rain
10:00 AM 40 °F 37 °F 85% 29.84 in 31 mi West 11.2 mph - - Rain Light Rain
11:00 AM 40 °F 37 °F 87% 29.86 in 12 mi WSW 8.9 mph - - Rain Light Rain
12:00 PM 40 °F 38 °F 88% 29.88 in 34 mi WSW 8.9 mph - - Rain Light Rain
1:00 PM 41 °F 37 °F 82% 29.90 in 44 mi WSW 11.2 mph - - Rain Light Rain
2:00 PM 42 °F 38 °F 79% 29.91 in 44 mi WSW 8.9 mph - - Rain Rain
3:00 PM 42 °F 38 °F 79% 29.93 in 44 mi WSW 6.7 mph - -   Overcast
4:00 PM 42 °F 37 °F 78% 29.96 in 44 mi WSW 4.5 mph - -   Clear
5:00 PM 41 °F 37 °F 80% 29.99 in 44 mi WSW 6.7 mph - -   Overcast
6:00 PM 41 °F 36 °F 77% 30.02 in 44 mi WSW 4.5 mph - -   Overcast
7:00 PM 40 °F 36 °F 81% 30.04 in 31 mi SW 4.5 mph - -   Clear
8:00 PM 40 °F 35 °F 78% 30.05 in 34 mi WSW 4.5 mph - -   Mostly Cloudy
9:00 PM 40 °F 35 °F 77% 30.06 in 31 mi SSW 4.5 mph - -   Overcast
10:00 PM 39 °F 35 °F 80% 30.06 in 31 mi South 4.5 mph - -   Overcast
11:00 PM 38 °F 34 °F 81% 30.05 in 25 mi South 4.5 mph - -